EW7556 Weather Reports


time (UTC)temp
C
wind
direction
speed
KPH
gust
KPH
rain 1hr
cm
rain 24hr
cm
rain mn
cm
humidity
%
barometer
mb
20260507134601 8 192 0.0 0.0 0.00 0.00 0.00 92 1021.1
20260507133055 7 192 0.0 0.0 0.00 0.00 0.00 92 1021.0
20260507131601 7 192 0.0 1.6 0.00 0.00 0.00 92 1021.1
20260507130112 7 192 0.0 3.2 0.00 0.00 0.00 92 1021.1
20260507124600 6 188 0.0 1.6 0.00 0.00 0.00 92 1021.0
20260507123101 6 188 0.0 1.6 0.00 0.00 0.00 92 1021.2
20260507121508 6 186 0.0 4.8 0.00 0.00 0.00 92 1021.2
20260507120116 6 198 1.6 3.2 0.00 0.00 0.00 91 1021.2
20260507114605 6 224 0.0 0.0 0.00 0.00 0.00 90 1021.4
20260507113004 6 224 0.0 0.0 0.00 0.00 0.00 89 1021.4
20260507111509 7 224 0.0 0.0 0.00 0.00 0.00 89 1021.2
20260507110121 7 224 0.0 4.8 0.00 0.00 0.00 89 1021.3
20260507104505 7 204 0.0 4.8 0.00 0.00 0.00 90 1021.3
20260507103007 7 193 0.0 3.2 0.00 0.00 0.00 90 1021.5
20260507101516 8 200 0.0 3.2 0.00 0.00 0.00 89 1021.4
20260507100119 8 200 0.0 1.6 0.00 0.00 0.00 88 1021.4
20260507094604 8 181 0.0 3.2 0.00 0.00 0.00 88 1021.5
20260507093004 9 224 3.2 6.4 0.00 0.00 0.00 88 1021.5
20260507091508 9 186 0.0 4.8 0.00 0.00 0.00 88 1021.6
20260507090114 9 193 3.2 8.0 0.00 0.00 0.00 88 1021.7
20260507084601 9 190 1.6 4.8 0.00 0.00 0.00 88 1021.6
20260507083102 10 183 1.6 9.7 0.00 0.00 0.00 87 1021.5
20260507081501 10 203 4.8 9.7 0.00 0.00 0.00 86 1021.5
20260507080119 10 195 0.0 1.6 0.00 0.00 0.00 87 1021.5
20260507074604 10 227 0.0 8.0 0.00 0.00 0.00 88 1021.2
20260507073003 10 186 1.6 6.4 0.00 0.00 0.00 89 1020.9
20260507071506 10 223 4.8 9.7 0.00 0.00 0.00 88 1021.0
20260507070114 10 203 1.6 6.4 0.00 0.00 0.00 87 1021.1
20260507064618 10 216 0.0 4.8 0.00 0.00 0.00 87 1021.1
20260507063101 10 191 0.0 3.2 0.00 0.00 0.00 88 1021.1
20260507061503 10 188 1.6 9.7 0.00 0.00 0.00 89 1020.9
20260507060108 10 233 1.6 8.0 0.00 0.00 0.00 90 1021.0
20260507054602 10 230 0.0 3.2 0.00 0.00 0.00 90 1021.1
20260507053055 10 230 0.0 3.2 0.00 0.00 0.00 90 1021.1
20260507051558 10 197 1.6 6.4 0.00 0.00 0.00 89 1021.2
20260507044548 10 205 1.6 12.9 0.00 0.00 0.00 88 1021.3
20260507043059 11 207 4.8 16.1 0.00 0.00 0.00 88 1021.2
20260507041605 11 174 4.8 20.9 0.00 0.00 0.00 88 1021.1
20260507040100 11 200 4.8 12.9 0.00 0.00 0.00 88 1021.0
20260507034548 11 215 6.4 16.1 0.00 0.00 0.00 87 1021.0
20260507033050 11 227 8.0 16.1 0.00 0.00 0.00 86 1020.9
20260507031552 11 157 4.8 14.5 0.00 0.00 0.00 86 1020.7
20260507024540 12 216 3.2 9.7 0.00 0.00 0.00 86 1020.7
20260507023043 12 181 3.2 14.5 0.00 0.00 0.00 86 1020.6
20260507021552 12 223 3.2 9.7 0.00 0.00 0.00 87 1020.6
20260507020050 11 188 3.2 9.7 0.00 0.00 0.00 87 1020.7
20260507014555 12 214 3.2 11.3 0.00 0.00 0.00 86 1020.7
20260507013108 12 200 3.2 11.3 0.00 0.00 0.00 86 1020.6
20260507011550 12 236 3.2 16.1 0.00 0.00 0.00 86 1020.5
20260507010054 12 225 6.4 14.5 0.00 0.00 0.00 85 1020.5
20260507004539 12 235 4.8 11.3 0.00 0.00 0.00 85 1020.6
20260507003039 12 193 3.2 8.0 0.00 0.00 0.00 85 1020.5
20260507001556 12 247 4.8 16.1 0.00 0.00 0.00 84 1020.5
20260507000029 12 240 3.2 11.3 0.00 0.00 0.00 85 1020.5
20260506234530 12 238 3.2 16.1 0.00 0.00 0.00 85 1020.5
20260506233030 12 201 8.0 14.5 0.00 0.00 0.00 83 1020.5
20260506231534 12 196 8.0 16.1 0.00 0.00 0.00 84 1020.5
20260506230027 12 214 4.8 19.3 0.00 0.00 0.00 86 1020.6
20260506224531 12 250 8.0 17.7 0.00 0.00 0.00 85 1020.7
20260506223035 12 234 4.8 16.1 0.00 0.00 0.00 85 1020.7
20260506221538 12 223 6.4 14.5 0.00 0.00 0.00 83 1020.7
20260506220023 12 206 4.8 17.7 0.00 0.00 0.00 83 1020.7
20260506214527 12 243 6.4 14.5 0.00 0.00 0.00 82 1020.7
20260506213035 13 219 8.0 16.1 0.00 0.00 0.00 81 1020.7
20260506211533 13 188 6.4 14.5 0.00 0.00 0.00 81 1020.8
20260506210039 12 233 4.8 16.1 0.00 0.00 0.00 82 1020.7
20260506204522 13 239 6.4 16.1 0.00 0.00 0.00 81 1020.7
20260506203025 12 243 4.8 22.5 0.00 0.00 0.00 81 1020.7
20260506201531 12 200 8.0 14.5 0.00 0.00 0.00 81 1020.6
20260506200039 12 236 3.2 12.9 0.00 0.00 0.00 84 1020.7
20260506194518 12 211 4.8 12.9 0.00 0.00 0.00 84 1020.7
20260506193021 11 179 4.8 17.7 0.00 0.00 0.00 86 1020.6
20260506191525 11 198 8.0 12.9 0.00 0.00 0.00 86 1020.7
20260506190012 11 179 6.4 16.1 0.00 0.00 0.00 85 1020.6
20260506184515 11 190 4.8 12.9 0.00 0.00 0.00 85 1020.4
20260506183017 11 245 4.8 16.1 0.00 0.00 0.00 85 1020.3
20260506181529 11 225 6.4 14.5 0.00 0.00 0.00 85 1020.3
20260506180008 11 227 4.8 16.1 0.00 0.00 0.00 86 1020.2
20260506174512 11 202 8.0 19.3 0.00 0.00 0.00 86 1020.3
20260506173015 11 200 3.2 14.5 0.00 0.00 0.00 86 1020.1
20260506171543 11 246 4.8 11.3 0.00 0.00 0.00 86 1020.1
20260506170012 11 244 3.2 12.9 0.00 0.00 0.00 86 1019.9
20260506164516 11 204 4.8 9.7 0.00 0.00 0.00 85 1019.8
20260506163022 11 209 3.2 12.9 0.00 0.00 0.00 86 1019.8
20260506161529 11 225 3.2 9.7 0.00 0.00 0.00 87 1019.8
20260506160013 10 219 3.2 8.0 0.00 0.00 0.00 88 1019.8
20260506154515 10 216 1.6 11.3 0.00 0.00 0.00 89 1019.9
20260506153018 10 202 4.8 16.1 0.00 0.00 0.00 89 1019.9
20260506151524 10 212 6.4 14.5 0.00 0.00 0.00 89 1019.8
20260506150010 10 230 4.8 12.9 0.00 0.00 0.00 89 1019.4
20260506144513 10 228 0.0 3.2 0.00 0.00 0.00 90 1019.3
20260506143024 10 184 3.2 6.4 0.00 0.00 0.00 89 1019.1
20260506141529 10 238 0.0 9.7 0.00 0.00 0.00 89 1019.2
20260506140014 10 200 0.0 6.4 0.00 0.00 0.00 90 1019.1